| time (UTC) | temp F | wind direction | speed MPH | gust MPH | rain 1hr in | rain 24hr in | rain mn in | humidity % | barometer mb |
| 20260507060519 | 57 | 250 | 9.0 | 16.0 | 0.00 | 0.00 | 0.00 | 64 | 1013.0 |
| 20260507055539 | 58 | 251 | 8.0 | 15.0 | 0.00 | 0.00 | 0.00 | 64 | 1012.9 |
| 20260507054520 | 58 | 250 | 11.0 | 16.0 | 0.00 | 0.00 | 0.00 | 63 | 1013.0 |
| 20260507053539 | 57 | 247 | 6.0 | 13.0 | 0.00 | 0.00 | 0.00 | 64 | 1012.9 |
| 20260507052519 | 57 | 246 | 4.0 | 8.0 | 0.00 | 0.00 | 0.00 | 65 | 1012.9 |
| 20260507051523 | 57 | 249 | 6.0 | 13.0 | 0.00 | 0.00 | 0.00 | 65 | 1012.7 |
| 20260507050519 | 57 | 240 | 7.0 | 11.0 | 0.00 | 0.00 | 0.00 | 66 | 1012.7 |
| 20260507045520 | 56 | 247 | 5.0 | 11.0 | 0.00 | 0.00 | 0.00 | 66 | 1012.5 |
| 20260507044518 | 56 | 238 | 4.0 | 9.0 | 0.00 | 0.00 | 0.00 | 66 | 1012.5 |
| 20260507043519 | 56 | 248 | 6.0 | 13.0 | 0.00 | 0.00 | 0.00 | 66 | 1012.3 |
| 20260507042520 | 56 | 245 | 5.0 | 10.0 | 0.00 | 0.00 | 0.00 | 66 | 1012.2 |
| 20260507041519 | 56 | 246 | 6.0 | 11.0 | 0.00 | 0.00 | 0.00 | 65 | 1012.0 |
| 20260507040521 | 56 | 246 | 5.0 | 11.0 | 0.00 | 0.00 | 0.00 | 65 | 1012.0 |
| 20260507035521 | 56 | 239 | 5.0 | 9.0 | 0.00 | 0.00 | 0.00 | 65 | 1011.8 |
| 20260507034519 | 57 | 248 | 7.0 | 16.0 | 0.00 | 0.00 | 0.00 | 64 | 1011.8 |
| 20260507033521 | 57 | 252 | 7.0 | 13.0 | 0.00 | 0.00 | 0.00 | 64 | 1011.6 |
| 20260507032521 | 57 | 253 | 10.0 | 16.0 | 0.00 | 0.00 | 0.00 | 64 | 1011.5 |
| 20260507031518 | 57 | 258 | 10.0 | 18.0 | 0.00 | 0.00 | 0.00 | 65 | 1011.5 |
| 20260507030521 | 57 | 249 | 8.0 | 15.0 | 0.00 | 0.00 | 0.00 | 64 | 1011.3 |
| 20260507030022 | 57 | 241 | 8.0 | 17.0 | 0.00 | 0.00 | 0.00 | 64 | 1011.3 |
| 20260507025018 | 58 | 242 | 7.0 | 16.0 | 0.00 | 0.00 | 0.00 | 64 | 1011.2 |
| 20260507024019 | 58 | 230 | 6.0 | 11.0 | 0.00 | 0.00 | 0.00 | 63 | 1011.0 |
| 20260507023020 | 58 | 230 | 7.0 | 22.0 | 0.00 | 0.00 | 0.00 | 63 | 1011.1 |
| 20260507022017 | 58 | 241 | 5.0 | 11.0 | 0.00 | 0.00 | 0.00 | 64 | 1011.0 |
| 20260507021039 | 58 | 232 | 7.0 | 18.0 | 0.00 | 0.00 | 0.00 | 64 | 1010.9 |
| 20260507020106 | 58 | 239 | 6.0 | 17.0 | 0.00 | 0.00 | 0.00 | 65 | 1010.8 |
| 20260507015017 | 58 | 220 | 5.0 | 13.0 | 0.00 | 0.00 | 0.00 | 65 | 1010.8 |
| 20260507014019 | 58 | 231 | 6.0 | 14.0 | 0.00 | 0.00 | 0.00 | 65 | 1010.9 |
| 20260507013023 | 58 | 216 | 4.0 | 9.0 | 0.00 | 0.00 | 0.00 | 66 | 1010.7 |
| 20260507012017 | 58 | 213 | 6.0 | 14.0 | 0.00 | 0.00 | 0.00 | 67 | 1010.5 |
| 20260507011020 | 59 | 222 | 5.0 | 14.0 | 0.00 | 0.00 | 0.00 | 67 | 1010.4 |
| 20260507010017 | 59 | 235 | 5.0 | 13.0 | 0.00 | 0.00 | 0.00 | 67 | 1010.2 |
| 20260507005019 | 59 | 228 | 5.0 | 11.0 | 0.00 | 0.00 | 0.00 | 67 | 1010.3 |
| 20260507004021 | 59 | 241 | 8.0 | 15.0 | 0.00 | 0.00 | 0.00 | 66 | 1010.2 |
| 20260507003022 | 59 | 248 | 7.0 | 15.0 | 0.00 | 0.00 | 0.00 | 66 | 1010.3 |
| 20260507002020 | 60 | 233 | 5.0 | 11.0 | 0.00 | 0.00 | 0.00 | 66 | 1010.2 |
| 20260507001020 | 60 | 223 | 7.0 | 18.0 | 0.00 | 0.00 | 0.00 | 66 | 1009.9 |
| 20260507000016 | 60 | 242 | 7.0 | 17.0 | 0.00 | 0.00 | 0.00 | 67 | 1009.8 |
| 20260506235018 | 60 | 244 | 7.0 | 16.0 | 0.00 | 0.00 | 0.00 | 66 | 1009.6 |
| 20260506234042 | 60 | 237 | 7.0 | 16.0 | 0.00 | 0.00 | 0.00 | 66 | 1009.5 |
| 20260506233016 | 61 | 233 | 6.0 | 13.0 | 0.00 | 0.00 | 0.00 | 66 | 1009.6 |
| 20260506232018 | 61 | 240 | 5.0 | 11.0 | 0.00 | 0.00 | 0.00 | 67 | 1009.5 |
| 20260506231021 | 61 | 242 | 7.0 | 14.0 | 0.00 | 0.00 | 0.00 | 67 | 1009.1 |
| 20260506230017 | 61 | 248 | 11.0 | 24.0 | 0.00 | 0.00 | 0.00 | 67 | 1009.1 |
| 20260506225019 | 62 | 236 | 11.0 | 21.0 | 0.00 | 0.00 | 0.00 | 67 | 1008.7 |
| 20260506224021 | 62 | 245 | 14.0 | 30.0 | 0.00 | 0.00 | 0.00 | 67 | 1008.6 |
| 20260506223018 | 62 | 248 | 9.0 | 18.0 | 0.00 | 0.00 | 0.00 | 64 | 1008.7 |
| 20260506222021 | 62 | 256 | 10.0 | 19.0 | 0.00 | 0.00 | 0.00 | 62 | 1008.3 |
| 20260506221016 | 63 | 248 | 13.0 | 22.0 | 0.00 | 0.00 | 0.00 | 62 | 1007.9 |
| 20260506220020 | 63 | 243 | 9.0 | 23.0 | 0.00 | 0.00 | 0.00 | 60 | 1007.7 |
| 20260506215021 | 64 | 224 | 6.0 | 13.0 | 0.00 | 0.00 | 0.00 | 58 | 1007.4 |
| 20260506214017 | 64 | 223 | 6.0 | 19.0 | 0.00 | 0.00 | 0.00 | 57 | 1007.2 |
| 20260506213020 | 65 | 226 | 5.0 | 11.0 | 0.00 | 0.00 | 0.00 | 55 | 1007.0 |
| 20260506212020 | 66 | 227 | 6.0 | 15.0 | 0.00 | 0.00 | 0.00 | 51 | 1006.8 |
| 20260506211018 | 65 | 228 | 4.0 | 11.0 | 0.00 | 0.00 | 0.00 | 52 | 1006.5 |
| 20260506210019 | 66 | 205 | 3.0 | 7.0 | 0.00 | 0.00 | 0.00 | 52 | 1006.2 |
| 20260506205020 | 66 | 197 | 3.0 | 9.0 | 0.00 | 0.00 | 0.00 | 52 | 1006.1 |
| 20260506204018 | 66 | 194 | 2.0 | 4.0 | 0.00 | 0.00 | 0.00 | 51 | 1005.9 |
| 20260506203019 | 66 | 195 | 1.0 | 3.0 | 0.00 | 0.00 | 0.00 | 51 | 1005.8 |
| 20260506202043 | 66 | 194 | 3.0 | 7.0 | 0.00 | 0.00 | 0.00 | 51 | 1005.6 |
| 20260506201019 | 66 | 200 | 2.0 | 4.0 | 0.00 | 0.00 | 0.00 | 50 | 1005.5 |
| 20260506200019 | 67 | 197 | 2.0 | 4.0 | 0.00 | 0.00 | 0.00 | 51 | 1005.4 |
| 20260506195016 | 67 | 171 | 1.0 | 6.0 | 0.00 | 0.00 | 0.00 | 50 | 1005.3 |
| 20260506194018 | 68 | 179 | 2.0 | 4.0 | 0.00 | 0.00 | 0.00 | 49 | 1005.2 |
| 20260506193040 | 68 | 196 | 2.0 | 4.0 | 0.00 | 0.00 | 0.00 | 48 | 1005.0 |
| 20260506192057 | 68 | 160 | 4.0 | 9.0 | 0.00 | 0.00 | 0.00 | 47 | 1004.8 |
| 20260506191020 | 69 | 165 | 2.0 | 4.0 | 0.00 | 0.00 | 0.00 | 46 | 1004.7 |
| 20260506190021 | 70 | 144 | 3.0 | 9.0 | 0.00 | 0.00 | 0.00 | 45 | 1004.5 |
| 20260506185017 | 70 | 173 | 2.0 | 3.0 | 0.00 | 0.00 | 0.00 | 44 | 1004.5 |
| 20260506184021 | 71 | 169 | 4.0 | 9.0 | 0.00 | 0.00 | 0.00 | 44 | 1004.4 |
| 20260506183021 | 71 | 177 | 4.0 | 11.0 | 0.00 | 0.00 | 0.00 | 44 | 1004.2 |
| 20260506182018 | 71 | 162 | 4.0 | 9.0 | 0.00 | 0.00 | 0.00 | 43 | 1004.0 |
| 20260506181020 | 72 | 172 | 5.0 | 11.0 | 0.00 | 0.00 | 0.00 | 43 | 1004.0 |
| 20260506180022 | 72 | 167 | 5.0 | 10.0 | 0.00 | 0.00 | 0.00 | 42 | 1003.9 |
| 20260506175018 | 73 | 172 | 6.0 | 13.0 | 0.00 | 0.00 | 0.00 | 41 | 1003.7 |
| 20260506174019 | 73 | 175 | 7.0 | 16.0 | 0.00 | 0.00 | 0.00 | 41 | 1003.8 |
| 20260506173021 | 74 | 159 | 5.0 | 10.0 | 0.00 | 0.00 | 0.00 | 41 | 1003.7 |
| 20260506172019 | 74 | 168 | 6.0 | 15.0 | 0.00 | 0.00 | 0.00 | 41 | 1003.9 |
| 20260506171041 | 74 | 162 | 6.0 | 13.0 | 0.00 | 0.00 | 0.00 | 41 | 1003.8 |
| 20260506170021 | 74 | 154 | 4.0 | 10.0 | 0.00 | 0.00 | 0.00 | 40 | 1003.9 |
| 20260506165018 | 75 | 157 | 6.0 | 11.0 | 0.00 | 0.00 | 0.00 | 40 | 1003.9 |
| 20260506164041 | 75 | 173 | 4.0 | 11.0 | 0.00 | 0.00 | 0.00 | 40 | 1004.0 |
| 20260506163021 | 75 | 139 | 4.0 | 13.0 | 0.00 | 0.00 | 0.00 | 39 | 1004.0 |
| 20260506162043 | 76 | 153 | 5.0 | 13.0 | 0.00 | 0.00 | 0.00 | 39 | 1004.0 |
| 20260506161039 | 77 | 135 | 6.0 | 15.0 | 0.00 | 0.00 | 0.00 | 38 | 1004.0 |
| 20260506160021 | 78 | 160 | 5.0 | 10.0 | 0.00 | 0.00 | 0.00 | 37 | 1004.2 |
| 20260506155019 | 78 | 192 | 4.0 | 8.0 | 0.00 | 0.00 | 0.00 | 31 | 1004.2 |
| 20260506154016 | 79 | 204 | 4.0 | 11.0 | 0.00 | 0.00 | 0.00 | 31 | 1004.1 |
| 20260506153017 | 79 | 215 | 4.0 | 13.0 | 0.00 | 0.00 | 0.00 | 31 | 1004.1 |
| 20260506152019 | 79 | 219 | 4.0 | 9.0 | 0.00 | 0.00 | 0.00 | 31 | 1004.1 |
| 20260506151018 | 80 | 214 | 6.0 | 15.0 | 0.00 | 0.00 | 0.00 | 30 | 1004.2 |
| 20260506150046 | 81 | 202 | 5.0 | 14.0 | 0.00 | 0.00 | 0.00 | 29 | 1004.3 |
| 20260506145023 | 81 | 228 | 4.0 | 9.0 | 0.00 | 0.00 | 0.00 | 28 | 1004.1 |
| 20260506144021 | 82 | 212 | 5.0 | 14.0 | 0.00 | 0.00 | 0.00 | 28 | 1004.4 |
| 20260506143016 | 81 | 183 | 5.0 | 10.0 | 0.00 | 0.00 | 0.00 | 30 | 1004.3 |
| 20260506142021 | 81 | 164 | 6.0 | 17.0 | 0.00 | 0.00 | 0.00 | 31 | 1004.3 |
| 20260506141017 | 82 | 126 | 5.0 | 15.0 | 0.00 | 0.00 | 0.00 | 31 | 1004.3 |
| 20260506140022 | 81 | 123 | 5.0 | 14.0 | 0.00 | 0.00 | 0.00 | 31 | 1004.3 |
| 20260506135022 | 81 | 76 | 5.0 | 14.0 | 0.00 | 0.00 | 0.00 | 31 | 1004.5 |
| 20260506134020 | 82 | 107 | 5.0 | 11.0 | 0.00 | 0.00 | 0.00 | 30 | 1004.6 |
| 20260506133022 | 82 | 105 | 3.0 | 9.0 | 0.00 | 0.00 | 0.00 | 31 | 1004.7 |
| 20260506132022 | 81 | 97 | 7.0 | 18.0 | 0.00 | 0.00 | 0.00 | 31 | 1004.6 |
| 20260506131017 | 80 | 94 | 6.0 | 15.0 | 0.00 | 0.00 | 0.00 | 32 | 1004.8 |
| 20260506130042 | 80 | 91 | 8.0 | 15.0 | 0.00 | 0.00 | 0.00 | 32 | 1005.1 |
| 20260506125019 | 78 | 94 | 7.0 | 16.0 | 0.00 | 0.00 | 0.00 | 34 | 1005.4 |
| 20260506124021 | 78 | 84 | 6.0 | 19.0 | 0.00 | 0.00 | 0.00 | 34 | 1005.6 |
| 20260506123020 | 79 | 83 | 10.0 | 21.0 | 0.00 | 0.00 | 0.00 | 34 | 1005.8 |
| 20260506122021 | 80 | 81 | 12.0 | 22.0 | 0.00 | 0.00 | 0.00 | 34 | 1005.6 |
| 20260506121019 | 79 | 91 | 11.0 | 21.0 | 0.00 | 0.00 | 0.00 | 35 | 1005.9 |
| 20260506120017 | 77 | 100 | 11.0 | 22.0 | 0.00 | 0.00 | 0.00 | 36 | 1006.0 |
| 20260506115020 | 78 | 95 | 10.0 | 18.0 | 0.00 | 0.00 | 0.00 | 35 | 1006.1 |
| 20260506114019 | 78 | 97 | 6.0 | 13.0 | 0.00 | 0.00 | 0.00 | 35 | 1006.3 |
| 20260506113020 | 78 | 91 | 7.0 | 15.0 | 0.00 | 0.00 | 0.00 | 36 | 1006.6 |
| 20260506112017 | 78 | 91 | 12.0 | 25.0 | 0.00 | 0.00 | 0.00 | 36 | 1006.5 |
| 20260506111020 | 78 | 95 | 7.0 | 21.0 | 0.00 | 0.00 | 0.00 | 37 | 1006.9 |
| 20260506110018 | 77 | 87 | 9.0 | 17.0 | 0.00 | 0.00 | 0.00 | 38 | 1006.9 |
| 20260506105022 | 77 | 88 | 11.0 | 22.0 | 0.00 | 0.00 | 0.00 | 38 | 1007.0 |
| 20260506104019 | 77 | 102 | 8.0 | 17.0 | 0.00 | 0.00 | 0.00 | 37 | 1007.4 |
| 20260506103022 | 77 | 98 | 6.0 | 16.0 | 0.00 | 0.00 | 0.00 | 37 | 1007.4 |
| 20260506102023 | 77 | 84 | 8.0 | 18.0 | 0.00 | 0.00 | 0.00 | 36 | 1007.4 |
| 20260506101021 | 78 | 120 | 6.0 | 15.0 | 0.00 | 0.00 | 0.00 | 35 | 1007.5 |
| 20260506100019 | 77 | 83 | 9.0 | 18.0 | 0.00 | 0.00 | 0.00 | 37 | 1007.7 |
| 20260506095016 | 76 | 102 | 4.0 | 15.0 | 0.00 | 0.00 | 0.00 | 38 | 1007.9 |
| 20260506094019 | 77 | 90 | 6.0 | 13.0 | 0.00 | 0.00 | 0.00 | 37 | 1008.0 |
| 20260506093019 | 77 | 83 | 6.0 | 13.0 | 0.00 | 0.00 | 0.00 | 38 | 1008.2 |
| 20260506092019 | 75 | 87 | 9.0 | 21.0 | 0.00 | 0.00 | 0.00 | 39 | 1008.2 |
| 20260506091039 | 74 | 88 | 4.0 | 11.0 | 0.00 | 0.00 | 0.00 | 40 | 1008.4 |
| 20260506090021 | 74 | 69 | 5.0 | 10.0 | 0.00 | 0.00 | 0.00 | 42 | 1008.5 |
| 20260506085039 | 73 | 53 | 3.0 | 7.0 | 0.00 | 0.00 | 0.00 | 42 | 1008.6 |
| 20260506084102 | 73 | 59 | 4.0 | 10.0 | 0.00 | 0.00 | 0.00 | 43 | 1008.6 |
| 20260506083017 | 73 | 77 | 4.0 | 11.0 | 0.00 | 0.00 | 0.00 | 43 | 1008.7 |
| 20260506082020 | 73 | 105 | 3.0 | 6.0 | 0.00 | 0.00 | 0.00 | 42 | 1008.8 |
| 20260506081039 | 72 | 353 | 2.0 | 7.0 | 0.00 | 0.00 | 0.00 | 46 | 1009.0 |
| 20260506073020 | 70 | 320 | 1.0 | 4.0 | 0.00 | 0.00 | 0.00 | 50 | 1009.2 |
| 20260506072021 | 69 | 249 | 2.0 | 4.0 | 0.00 | 0.00 | 0.00 | 51 | 1009.3 |
| 20260506071019 | 68 | 259 | 2.0 | 6.0 | 0.00 | 0.00 | 0.00 | 52 | 1009.4 |
| 20260506062021 | 65 | 237 | 1.0 | 3.0 | 0.00 | 0.00 | 0.00 | 59 | 1009.8 |
| 20260506061021 | 64 | 214 | 3.0 | 7.0 | 0.00 | 0.00 | 0.00 | 61 | 1009.8 |